When you browse on this site, cookies collect data to enhance your experience and personalize the content and advertising you see.
Visit our Privacy Policy to learn more. By continuing to use the site, you agree to this use of cookies and data.
  • In Hungary
  • List of Countries
  • For 7 days
  • Water Temperature
  • Weather Map
  • News
  • Weather Widgets
  • user-avatar
    Login

    Hourly Weather Kondrevo

    Today, 23 August, Friday

    Time Temperature Precipitation Wind Pressure Humidity
    00:00 +15°C° 0 mm 5 mps 751 mmHg 84%
    01:00 +15°C° 0 mm 5 mps 751 mmHg 85%
    02:00 +15°C° 0 mm 5 mps 751 mmHg 82%
    03:00 +14°C° 0 mm 5 mps 751 mmHg 84%
    04:00 +14°C° 0 mm 4 mps 751 mmHg 85%
    05:00 +14°C° 0 mm 4 mps 751 mmHg 86%
    06:00 +15°C° 0 mm 4 mps 752 mmHg 83%
    07:00 +16°C° 0 mm 5 mps 752 mmHg 80%
    08:00 +17°C° 0 mm 5 mps 752 mmHg 76%
    09:00 +19°C° 0 mm 5 mps 752 mmHg 73%
    10:00 +20°C° 0 mm 5 mps 752 mmHg 70%
    11:00 +21°C° 0 mm 5 mps 752 mmHg 67%
    12:00 +22°C° 0 mm 5 mps 752 mmHg 65%
    13:00 +22°C° 0 mm 5 mps 752 mmHg 63%
    14:00 +23°C° 0 mm 5 mps 752 mmHg 61%
    15:00 +22°C° 0 mm 4 mps 752 mmHg 63%
    16:00 +22°C° 0 mm 4 mps 752 mmHg 66%
    17:00 +21°C° 0 mm 3 mps 752 mmHg 68%
    18:00 +20°C° 0 mm 3 mps 752 mmHg 73%
    19:00 +18°C° 0 mm 3 mps 752 mmHg 78%
    20:00 +17°C° 0 mm 3 mps 752 mmHg 82%
    21:00 +16°C° 0 mm 3 mps 752 mmHg 84%
    22:00 +16°C° 0 mm 3 mps 752 mmHg 85%
    23:00 +15°C° 0 mm 2 mps 752 mmHg 87%

    Tomorrow, 24 August, Saturday

    Time Temperature Precipitation Wind Pressure Humidity
    00:00 +15°C° 0 mm 2 mps 752 mmHg 88%
    01:00 +14°C° 0 mm 2 mps 752 mmHg 90%
    02:00 +13°C° 0 mm 3 mps 752 mmHg 91%
    03:00 +13°C° 0 mm 2 mps 752 mmHg 92%
    04:00 +13°C° 0 mm 2 mps 752 mmHg 92%
    05:00 +13°C° 0 mm 2 mps 751 mmHg 93%
    06:00 +15°C° 0 mm 2 mps 751 mmHg 86%
    07:00 +16°C° 0 mm 2 mps 751 mmHg 79%
    08:00 +18°C° 0 mm 2 mps 752 mmHg 73%
    09:00 +19°C° 0 mm 2 mps 751 mmHg 66%
    10:00 +21°C° 0 mm 2 mps 751 mmHg 60%
    11:00 +23°C° 0 mm 2 mps 751 mmHg 53%
    12:00 +23°C° 0 mm 2 mps 751 mmHg 51%
    13:00 +24°C° 0 mm 2 mps 751 mmHg 48%
    14:00 +25°C° 0 mm 2 mps 751 mmHg 45%
    15:00 +24°C° 0 mm 2 mps 750 mmHg 49%
    16:00 +24°C° 0 mm 1 mps 750 mmHg 53%
    17:00 +24°C° 0 mm 1 mps 750 mmHg 56%
    18:00 +22°C° 0 mm 1 mps 750 mmHg 60%
    19:00 +20°C° 0 mm 1 mps 750 mmHg 64%
    20:00 +18°C° 0 mm 1 mps 750 mmHg 68%
    21:00 +16°C° 0 mm 1 mps 750 mmHg 71%
    22:00 +16°C° 0 mm 2 mps 750 mmHg 75%
    23:00 +15°C° 0 mm 2 mps 750 mmHg 79%

    Day after tomorrow, 25 August, Sunday

    Time Temperature Precipitation Wind Pressure Humidity
    00:00 +15°C° 0 mm 2 mps 750 mmHg 82%
    01:00 +15°C° 0 mm 2 mps 750 mmHg 85%
    02:00 +14°C° 0 mm 2 mps 750 mmHg 89%
    03:00 +14°C° 0 mm 2 mps 750 mmHg 90%
    04:00 +14°C° 0 mm 2 mps 750 mmHg 91%
    05:00 +14°C° 0 mm 2 mps 750 mmHg 93%
    06:00 +16°C° 0 mm 2 mps 750 mmHg 87%
    07:00 +17°C° 0 mm 2 mps 750 mmHg 82%
    08:00 +19°C° 0 mm 3 mps 750 mmHg 77%
    09:00 +20°C° 0 mm 3 mps 750 mmHg 72%
    10:00 +21°C° 0 mm 3 mps 750 mmHg 68%
    11:00 +24°C° 0 mm 3 mps 750 mmHg 64%
    12:00 +23°C° 0 mm 4 mps 750 mmHg 61%
    13:00 +23°C° 0 mm 4 mps 750 mmHg 58%
    14:00 +23°C° 0 mm 4 mps 750 mmHg 54%
    15:00 +23°C° 0 mm 4 mps 750 mmHg 58%
    16:00 +22°C° 0 mm 3 mps 750 mmHg 61%
    17:00 +22°C° 0 mm 3 mps 750 mmHg 64%
    18:00 +20°C° 0 mm 3 mps 751 mmHg 69%
    19:00 +18°C° 0 mm 3 mps 751 mmHg 74%
    20:00 +16°C° 0 mm 3 mps 751 mmHg 79%
    21:00 +16°C° 0 mm 2 mps 751 mmHg 81%
    22:00 +15°C° 0 mm 2 mps 752 mmHg 83%
    23:00 +14°C° 0 mm 2 mps 752 mmHg 85%

    26 August, Monday

    Time Temperature Precipitation Wind Pressure Humidity
    00:00 +14°C° 0 mm 2 mps 752 mmHg 87%
    01:00 +14°C° 0 mm 2 mps 752 mmHg 88%
    02:00 +13°C° 0 mm 1 mps 752 mmHg 89%
    03:00 +13°C° 0 mm 1 mps 752 mmHg 90%
    04:00 +13°C° 0 mm 2 mps 752 mmHg 91%
    05:00 +12°C° 0 mm 2 mps 752 mmHg 92%
    06:00 +14°C° 0 mm 2 mps 753 mmHg 86%
    07:00 +16°C° 0 mm 2 mps 753 mmHg 79%
    08:00 +18°C° 0 mm 2 mps 753 mmHg 73%
    09:00 +19°C° 0 mm 2 mps 753 mmHg 67%
    10:00 +20°C° 0 mm 2 mps 753 mmHg 61%
    11:00 +21°C° 0 mm 2 mps 753 mmHg 55%
    12:00 +23°C° 0 mm 2 mps 753 mmHg 52%
    13:00 +23°C° 0 mm 1 mps 752 mmHg 49%
    14:00 +24°C° 0 mm 1 mps 752 mmHg 46%
    15:00 +24°C° 0 mm 1 mps 752 mmHg 49%
    16:00 +21°C° 0 mm 0 mps 751 mmHg 52%
    17:00 +21°C° 0 mm 0 mps 751 mmHg 55%
    18:00 +19°C° 0 mm 0 mps 751 mmHg 58%
    19:00 +20°C° 0 mm 1 mps 751 mmHg 61%
    20:00 +18°C° 0 mm 1 mps 751 mmHg 64%
    21:00 +16°C° 0 mm 1 mps 751 mmHg 66%
    22:00 +16°C° 0 mm 1 mps 750 mmHg 67%
    23:00 +15°C° 0 mm 1 mps 750 mmHg 69%

    27 August, Tuesday

    Time Temperature Precipitation Wind Pressure Humidity
    00:00 +15°C° 0 mm 1 mps 750 mmHg 71%
    01:00 +15°C° 0 mm 2 mps 750 mmHg 74%
    02:00 +14°C° 0 mm 2 mps 750 mmHg 76%
    03:00 +14°C° 0 mm 2 mps 750 mmHg 78%
    04:00 +14°C° 0 mm 2 mps 749 mmHg 80%
    05:00 +13°C° 0 mm 2 mps 749 mmHg 82%
    06:00 +15°C° 0 mm 2 mps 749 mmHg 79%
    07:00 +16°C° 0 mm 2 mps 749 mmHg 76%
    08:00 +18°C° 0 mm 3 mps 749 mmHg 73%
    09:00 +19°C° 0 mm 3 mps 749 mmHg 67%
    10:00 +21°C° 0 mm 3 mps 749 mmHg 62%
    11:00 +22°C° 0 mm 4 mps 749 mmHg 56%
    12:00 +23°C° 0 mm 4 mps 748 mmHg 56%
    13:00 +23°C° 0 mm 4 mps 748 mmHg 56%
    14:00 +25°C° 0 mm 4 mps 747 mmHg 55%
    15:00 +25°C° 0 mm 4 mps 747 mmHg 59%
    16:00 +23°C° 0 mm 4 mps 747 mmHg 63%
    17:00 +24°C° 0 mm 3 mps 747 mmHg 67%
    18:00 +21°C° 0.1 mm 3 mps 747 mmHg 73%
    19:00 +19°C° 0.1 mm 3 mps 747 mmHg 79%
    20:00 +18°C° 0.1 mm 3 mps 747 mmHg 85%
    21:00 +17°C° 0 mm 3 mps 747 mmHg 87%
    22:00 +16°C° 0 mm 3 mps 748 mmHg 90%
    23:00 +16°C° 0 mm 3 mps 748 mmHg 93%

    28 August, Wednesday

    Time Temperature Precipitation Wind Pressure Humidity
    00:00 +14°C° 0 mm 3 mps 748 mmHg 94%
    01:00 +13°C° 0 mm 3 mps 748 mmHg 94%
    02:00 +12°C° 0 mm 3 mps 748 mmHg 95%
    03:00 +12°C° 0 mm 3 mps 749 mmHg 95%
    04:00 +11°C° 0 mm 3 mps 749 mmHg 95%
    05:00 +10°C° 0 mm 3 mps 750 mmHg 94%
    06:00 +11°C° 0 mm 4 mps 750 mmHg 87%
    07:00 +12°C° 0 mm 4 mps 750 mmHg 79%
    08:00 +12°C° 0 mm 4 mps 750 mmHg 71%
    09:00 +13°C° 0 mm 4 mps 751 mmHg 66%
    10:00 +14°C° 0 mm 4 mps 751 mmHg 61%
    11:00 +15°C° 0 mm 4 mps 751 mmHg 55%
    12:00 +17°C° 0 mm 4 mps 751 mmHg 53%
    13:00 +17°C° 0 mm 4 mps 751 mmHg 51%
    14:00 +17°C° 0 mm 4 mps 751 mmHg 49%
    15:00 +17°C° 0 mm 4 mps 751 mmHg 51%
    16:00 +17°C° 0 mm 4 mps 751 mmHg 53%
    17:00 +16°C° 0 mm 3 mps 751 mmHg 56%
    18:00 +14°C° 0 mm 3 mps 751 mmHg 61%
    19:00 +12°C° 0 mm 3 mps 751 mmHg 66%
    20:00 +10°C° 0 mm 2 mps 751 mmHg 71%
    21:00 +10°C° 0 mm 2 mps 751 mmHg 73%
    22:00 +9°C° 0 mm 2 mps 751 mmHg 74%
    23:00 +9°C° 0 mm 2 mps 752 mmHg 76%
    Show more